This is the latest recevied weather packets stored in our database for station/object KE5KUL-13. If no packets are shown the sender has not sent any weather packets the latest 10 day(s).
| Time | Temp. | Humidity | Pressure | Rain* | Wind** | Luminosity | Snow |
|---|---|---|---|---|---|---|---|
| 1777883717 | 15.56° C | 55% | 1012.9 hPa | 0 mm | - | - | - |
| 1777883118 | 16.11° C | 54% | 1013.3 hPa | 0 mm | - | - | - |
| 1777882517 | 16.11° C | 53% | 1013.4 hPa | 0 mm | - | - | - |
| 1777881917 | 16.11° C | 53% | 1013.2 hPa | 0 mm | - | - | - |
| 1777881317 | 16.11° C | 52% | 1013.2 hPa | 0 mm | - | - | - |
| 1777880719 | 16.67° C | 51% | 1013.3 hPa | 0 mm | - | - | - |
| 1777880117 | 16.11° C | 51% | 1013.5 hPa | 0 mm | - | - | - |
| 1777879517 | 16.11° C | 51% | 1013.7 hPa | 0 mm | - | - | - |
| 1777878917 | 16.11° C | 51% | 1014 hPa | 0 mm | - | - | - |
| 1777878319 | 16.11° C | 50% | 1014.1 hPa | 0 mm | - | - | - |
| 1777877719 | 16.11° C | 49% | 1014.3 hPa | 0 mm | - | - | - |
| 1777877117 | 16.67° C | 48% | 1014.4 hPa | 0 mm | - | - | - |
| 1777876517 | 16.67° C | 48% | 1014.5 hPa | 0 mm | - | - | - |
| 1777875919 | 16.67° C | 47% | 1014.5 hPa | 0 mm | - | - | - |
| 1777875319 | 16.67° C | 46% | 1014.5 hPa | 0 mm | - | - | - |
| 1777874717 | 16.67° C | 45% | 1014.5 hPa | 0 mm | - | - | - |
| 1777874117 | 17.22° C | 44% | 1014.6 hPa | 0 mm | - | - | - |
| 1777873519 | 16.67° C | 44% | 1014.6 hPa | 0 mm | - | - | - |
| 1777872919 | 16.67° C | 43% | 1014.7 hPa | 0 mm | - | - | - |
| 1777872319 | 16.67° C | 42% | 1014.5 hPa | 0 mm | - | - | - |
| 1777871719 | 16.11° C | 41% | 1014.3 hPa | 0 mm | - | - | - |
| 1777871119 | 16.11° C | 40% | 1014.4 hPa | 0 mm | - | - | - |
| 1777870517 | 16.67° C | 40% | 1014.5 hPa | 0 mm | - | - | - |
| 1777869918 | 16.67° C | 39% | 1014.6 hPa | 0 mm | - | - | - |
| 1777869318 | 17.22° C | 38% | 1014.7 hPa | 0 mm | - | - | - |
* Rain latest hour (hover to see other rain measurements)
** Current wind speed in m/s (hover to see current wind gust speed)